Wind_Speed
53 54 54 54 53 53 53 54 54 55 56 56 55 52 62 55 54 55 56 54 54 53 51 49 47 48 46 45 45 47 49 48 41 43 43 45 39 41 47 46 42 40 45
48 51 52 56 58 59 56 56 57 57 57 58 59 58 59 60 60 60 58 58 57 57 56 54 52 50 50 50 50 50 55 51 49 57 54 57 52 51 54 54 51 47 45
47 47 53 54 55 58 59 60 61 61 59 59 61 62 63 65 65 64 64 60 62 60 60 59 56 54 52 53 54 55 53 58 61 50 54 54 53 52 53 55 51 49 48
43 47 51 51 54 55 55 56 61 64 65 64 64 66 58 69 71 68 67 65 64 62 63 62 60 58 57 57 56 57 58 60 67 71 62 56 52 53 54 54 53 52 51
42 40 43 49 54 54 54 56 58 61 65 66 62 65 66 62 72 72 67 70 65 67 65 65 64 64 60 61 57 58 59 61 63 64 62 60 57 57 56 54 53 52 52
38 40 40 42 45 47 49 53 57 60 64 67 67 70 76 63 80 76 72 71 58 69 61 68 65 68 64 61 59 60 59 62 63 64 63 62 61 61 59 56 56 55 55
37 36 36 37 39 41 45 48 52 57 62 67 71 73 75 79 80 74 73 58 69 60 67 67 72 62 59 68 66 60 59 61 64 65 66 66 65 64 62 60 60 58 57
38 36 35 35 38 41 44 47 47 54 57 67 70 76 78 77 78 79 79 79 79 70 78 75 76 79 72 75 72 69 71 63 64 65 66 66 66 66 65 64 63 62 61
39 37 36 37 38 40 42 50 51 54 65 65 71 74 82 81 83 78 73 74 69 77 69 73 80 78 76 72 78 77 77 73 74 73 68 67 66 66 65 66 66 66 65
37 36 35 37 41 43 43 46 54 56 53 61 72 78 78 80 82 82 82 80 82 73 79 81 84 77 71 83 84 84 83 78 77 77 72 67 69 72 72 70 68 70 71
37 38 38 39 40 44 46 47 49 58 58 57 55 69 75 81 78 81 82 81 81 78 78 78 78 82 86 82 86 85 83 81 80 81 80 78 77 77 78 78 78 77 74
38 39 39 42 43 44 46 47 46 47 49 50 53 58 63 77 74 72 80 80 89 85 84 85 71 76 77 80 86 81 89 86 82 85 85 80 80 82 82 81 80 78 75
35 37 39 44 47 48 48 46 42 42 41 43 47 52 59 72 75 77 72 80 74 91 88 87 91 74 70 77 83 78 85 85 81 83 83 83 82 82 82 80 80 78 76
39 40 42 44 47 49 49 48 46 45 43 42 41 45 51 62 75 76 77 76 78 83 85 81 95 93 96 76 71 72 76 74 80 78 79 76 78 79 81 82 80 80 80
36 38 39 40 41 44 48 51 50 50 49 47 45 45 46 50 58 70 77 81 79 81 80 88 90 91 86 83 84 79 85 82 80 77 77 76 82 83 85 88 85 81 76
40 41 42 40 40 41 43 46 48 49 50 52 53 52 50 51 52 53 59 69 76 81 83 83 85 83 88 92 99 99 92 91 88 86 88 83 82 87 86 82 82 80 81
48 49 50 51 51 50 51 51 51 53 54 54 55 55 57 58 57 57 58 59 62 68 73 77 82 86 88 90 92 95 97 99 101 102 101 100 96 91 92 91 91 89 92
52 54 54 55 56 58 60 60 62 62 60 61 61 61 60 61 62 62 63 63 62 64 65 69 71 75 78 80 84 88 91 94 96 97 97 97 97 98 98 96 96 95 94
50 53 57 58 60 63 66 67 67 67 68 69 67 68 68 67 66 67 67 68 68 69 68 67 68 69 71 73 75 79 84 88 89 89 88 87 88 89 92 95 95 94 94
48 52 55 57 59 61 64 67 69 71 73 74 73 73 73 72 72 71 72 72 73 73 73 74 74 72 72 73 74 76 77 78 80 82 83 85 87 89 90 92 91 91 92
42 44 46 49 52 55 59 62 63 68 70 74 78 79 80 82 82 80 79 77 76 76 77 79 78 79 79 78 78 78 79 78 79 80 81 80 81 82 84 87 89 90 92
35 36 40 42 43 46 49 53 56 58 61 63 67 68 75 83 90 91 88 87 88 87 86 84 84 85 83 83 83 84 84 83 83 82 82 82 82 82 83 82 83 84 87
34 36 37 39 41 42 44 47 51 55 59 64 68 71 73 75 77 79 85 91 93 93 93 92 92 91 90 89 88 87 87 88 88 88 87 86 86 85 84 84 85 84 84
29 30 30 31 32 33 36 39 41 44 48 52 57 61 66 72 77 80 82 83 85 88 90 92 93 94 95 95 93 93 93 91 90 90 91 91 91 90 89 87 87 86 87
23 24 25 28 31 33 35 37 40 42 43 43 44 47 49 53 58 64 70 76 81 85 87 88 90 92 93 94 97 97 96 96 94 93 93 94 95 94 93 92 92 91 91
24 27 28 30 33 35 37 39 41 43 44 42 41 41 43 46 48 51 54 58 62 68 73 78 82 85 87 89 91 93 94 95 96 98 98 98 97 95 96 95 96 95 95
Wind_Direction
251 250 247 245 242 241 241 241 242 242 245 247 245 226 246 245 243 242 241 242 241 239 240 238 237 238 239 237 234 226 225 228 230 225 231 230 230 225 238 241 252 249 243
248 248 247 246 244 243 240 240 241 240 240 243 246 243 243 244 244 242 240 240 242 241 240 238 239 238 237 237 237 234 229 235 241 228 231 238 242 243 244 249 253 251 246
242 247 248 248 246 244 240 239 239 239 239 240 242 243 240 242 242 242 241 242 241 241 241 241 240 239 238 237 237 236 233 228 228 227 227 231 238 243 244 247 248 247 246
254 251 243 249 247 244 242 242 240 240 239 237 239 239 237 242 242 240 241 241 240 243 240 240 240 242 241 239 237 236 237 236 233 241 242 241 242 243 245 245 247 248 249
260 258 250 245 246 246 246 241 238 237 239 237 236 240 239 228 233 241 238 239 239 237 239 241 240 239 239 239 238 236 237 237 237 237 239 240 241 243 244 244 247 249 250
258 256 254 251 249 247 245 242 240 237 235 237 235 236 230 228 240 242 238 237 239 238 234 240 235 238 239 240 239 237 236 236 237 237 238 240 242 242 244 246 247 249 251
261 257 252 251 251 249 245 245 242 237 235 235 234 235 236 237 238 240 238 238 234 232 239 239 238 231 234 239 237 237 238 237 237 237 238 239 241 243 244 246 248 251 254
262 259 256 251 250 248 244 241 241 242 240 238 238 236 235 236 239 235 241 238 239 240 237 232 236 236 241 240 239 238 239 240 238 240 241 242 244 246 247 248 249 251 253
262 261 258 253 250 250 247 244 242 242 241 238 239 240 238 232 232 235 235 240 234 235 237 238 242 239 234 232 238 240 244 241 239 239 244 248 248 249 250 251 252 253 255
262 261 258 254 251 250 249 246 242 242 243 241 243 239 241 236 235 230 235 239 240 235 238 236 237 244 233 239 240 239 242 242 243 242 243 247 250 249 252 254 256 257 257
254 256 256 256 255 253 251 251 252 243 244 243 244 243 242 240 233 235 232 234 237 241 242 242 242 238 229 245 240 242 244 243 242 242 244 246 250 251 252 252 253 256 257
257 257 256 255 254 252 250 250 252 253 243 243 239 240 242 241 234 241 241 234 236 233 238 240 244 237 246 244 238 242 247 245 244 246 246 249 252 252 254 255 255 256 257
264 262 256 253 251 249 249 248 249 247 250 245 240 238 239 240 235 232 237 242 238 240 236 239 242 243 240 240 246 251 246 249 244 249 252 253 253 254 255 256 257 256 259
268 266 264 261 259 260 261 259 260 259 256 254 250 246 241 237 237 235 236 239 242 244 235 240 239 242 245 242 236 240 246 253 247 256 253 255 258 258 260 258 259 259 259
272 272 271 269 267 264 263 264 265 264 263 261 257 253 250 247 242 239 239 238 238 238 243 242 241 238 243 248 246 249 250 248 242 244 252 256 257 256 254 256 258 259 261
271 271 269 269 271 273 273 272 272 270 268 266 264 261 257 253 250 248 245 242 242 241 242 242 242 244 246 248 244 247 247 247 250 253 252 253 250 251 251 254 251 252 252
267 270 269 268 271 271 273 276 279 277 274 271 269 265 262 259 256 255 253 249 247 244 243 243 245 247 247 246 245 246 248 250 252 253 254 256 255 253 255 258 255 255 256
267 267 269 272 274 277 278 277 280 280 279 275 271 269 266 263 261 259 256 254 254 252 250 248 247 245 245 246 247 248 249 249 249 249 250 252 253 254 254 255 256 256 257
267 267 269 270 272 275 277 277 277 277 276 275 273 269 267 265 263 261 259 258 256 254 253 252 252 252 251 249 248 247 248 248 249 250 251 252 252 253 253 254 254 255 255
270 271 271 272 273 274 272 272 271 270 270 270 268 267 266 265 264 262 261 260 259 258 257 255 254 253 253 253 254 254 253 251 250 250 250 251 252 253 254 255 256 256 256
275 276 276 276 276 276 277 276 275 274 273 270 268 267 266 265 264 263 262 261 261 261 260 259 257 255 255 253 253 254 254 254 255 255 254 254 254 254 254 255 255 256 256
281 282 283 283 284 285 284 284 283 280 277 273 271 268 265 264 263 262 262 261 260 261 261 261 260 259 258 256 255 254 255 254 254 254 255 255 256 256 256 256 256 256 256
287 287 288 291 291 290 289 289 288 285 281 277 273 270 267 265 262 260 260 260 260 260 260 259 258 258 258 258 258 257 256 255 255 255 255 255 255 256 256 256 257 257 257
294 295 296 297 301 305 305 304 308 302 293 286 280 274 270 266 263 260 259 258 258 258 258 257 256 256 256 256 256 256 257 257 257 257 256 256 255 256 256 257 257 258 258
302 302 306 308 310 313 316 321 320 321 313 303 294 286 280 275 270 266 263 261 259 258 257 256 255 255 255 255 255 256 256 256 256 256 256 257 257 256 257 257 258 258 259
307 307 310 312 315 318 320 323 326 327 327 318 308 299 287 280 276 272 268 265 262 260 259 258 257 256 255 255 254 254 254 255 255 255 255 255 256 257 258 258 259 259 260
Height
5610 5615 5620 5623 5627 5633 5638 5643 5649 5654 5659 5663 5668 5678 5676 5681 5685 5691 5694 5697 5702 5706 5709 5712 5715 5720 5724 5728 5732 5736 5739 5744 5746 5750 5752 5753 5755 5760 5763 5767 5768 5774 5776
5596 5599 5602 5608 5612 5617 5622 5628 5634 5639 5645 5649 5655 5661 5665 5668 5673 5678 5682 5687 5690 5694 5699 5703 5706 5709 5713 5718 5721 5725 5731 5734 5737 5740 5742 5745 5749 5752 5755 5758 5762 5765 5767
5582 5585 5589 5592 5597 5602 5606 5611 5618 5623 5629 5634 5640 5646 5650 5655 5659 5663 5669 5677 5678 5682 5687 5691 5695 5698 5701 5705 5709 5713 5717 5722 5725 5724 5728 5733 5739 5742 5746 5749 5751 5754 5758
5568 5570 5573 5577 5582 5586 5592 5598 5603 5608 5613 5619 5623 5630 5634 5640 5644 5648 5653 5659 5664 5669 5672 5677 5682 5687 5690 5693 5697 5701 5704 5709 5712 5713 5718 5722 5728 5731 5736 5738 5741 5745 5748
5555 5556 5559 5564 5568 5570 5575 5580 5585 5591 5598 5603 5609 5614 5621 5623 5629 5633 5638 5643 5651 5656 5659 5664 5669 5673 5677 5681 5684 5688 5691 5695 5700 5703 5707 5712 5717 5721 5725 5727 5731 5734 5737
5541 5543 5545 5548 5551 5554 5558 5563 5568 5574 5581 5587 5593 5599 5606 5609 5612 5618 5623 5629 5636 5640 5646 5650 5656 5659 5663 5667 5670 5674 5678 5682 5686 5692 5696 5700 5705 5709 5713 5716 5719 5722 5725
5528 5530 5532 5534 5536 5540 5543 5548 5552 5558 5564 5569 5574 5580 5587 5593 5598 5603 5611 5613 5617 5626 5629 5636 5639 5646 5646 5651 5657 5661 5665 5670 5674 5678 5683 5688 5692 5696 5700 5704 5706 5710 5713
5516 5517 5520 5523 5525 5528 5530 5534 5538 5543 5548 5554 5559 5563 5569 5576 5583 5590 5594 5600 5604 5609 5615 5619 5622 5629 5631 5636 5642 5646 5651 5655 5660 5664 5669 5673 5678 5682 5686 5690 5693 5698 5700
5504 5505 5507 5510 5513 5515 5518 5521 5525 5529 5532 5536 5541 5546 5550 5556 5566 5572 5576 5583 5587 5594 5598 5603 5607 5610 5614 5618 5625 5630 5635 5639 5645 5650 5655 5659 5662 5667 5671 5675 5678 5683 5687
5494 5495 5497 5500 5502 5504 5506 5508 5511 5514 5517 5520 5525 5530 5534 5538 5544 5552 5560 5566 5571 5575 5580 5587 5591 5595 5597 5602 5607 5613 5618 5623 5628 5632 5637 5642 5646 5651 5655 5658 5662 5666 5671
5484 5486 5488 5489 5491 5493 5494 5495 5498 5501 5503 5506 5509 5514 5520 5523 5529 5533 5541 5547 5554 5557 5562 5568 5574 5577 5581 5585 5589 5594 5600 5605 5610 5615 5620 5624 5629 5633 5637 5641 5645 5649 5653
5474 5476 5477 5479 5481 5482 5484 5485 5486 5487 5489 5492 5495 5498 5503 5508 5514 5518 5522 5529 5534 5539 5545 5550 5556 5562 5564 5566 5571 5576 5583 5586 5591 5598 5603 5607 5612 5616 5620 5623 5627 5631 5635
5464 5466 5468 5470 5471 5472 5473 5474 5475 5476 5478 5479 5480 5483 5487 5492 5497 5502 5506 5511 5517 5521 5526 5531 5537 5541 5546 5551 5556 5559 5564 5567 5573 5579 5585 5589 5592 5597 5601 5605 5609 5613 5615
5455 5456 5458 5459 5460 5460 5460 5462 5462 5464 5466 5467 5468 5469 5472 5476 5481 5485 5490 5494 5499 5504 5509 5513 5518 5522 5528 5535 5535 5540 5547 5550 5555 5561 5565 5569 5574 5578 5582 5586 5590 5592 5595
5445 5446 5447 5447 5448 5448 5448 5449 5450 5451 5452 5454 5456 5457 5459 5461 5463 5467 5472 5476 5481 5485 5489 5494 5499 5503 5507 5512 5515 5520 5527 5531 5534 5539 5545 5548 5553 5557 5561 5566 5570 5573 5576
5433 5434 5434 5435 5436 5437 5437 5437 5437 5438 5439 5440 5442 5443 5445 5447 5448 5450 5452 5456 5460 5465 5470 5474 5479 5483 5488 5492 5497 5500 5506 5511 5515 5519 5525 5528 5531 5536 5539 5542 5547 5550 5553
5420 5421 5422 5422 5423 5424 5424 5424 5424 5424 5424 5425 5427 5428 5430 5431 5433 5434 5436 5438 5441 5444 5448 5452 5457 5462 5466 5470 5474 5478 5482 5486 5491 5496 5501 5505 5511 5515 5518 5520 5524 5529 5532
5405 5406 5406 5406 5407 5407 5408 5408 5409 5409 5409 5409 5409 5410 5412 5414 5415 5416 5419 5421 5423 5426 5429 5432 5436 5440 5443 5446 5449 5453 5457 5463 5469 5474 5478 5483 5487 5491 5493 5496 5500 5504 5508
5391 5391 5391 5389 5391 5391 5390 5389 5390 5390 5391 5390 5391 5391 5391 5392 5394 5397 5399 5401 5404 5407 5410 5413 5416 5419 5422 5424 5427 5430 5435 5440 5445 5449 5453 5458 5463 5466 5469 5471 5474 5478 5484
5376 5375 5375 5374 5373 5371 5371 5369 5368 5368 5370 5368 5368 5368 5369 5370 5371 5373 5376 5379 5382 5385 5388 5392 5395 5399 5402 5405 5406 5408 5411 5417 5422 5427 5430 5434 5439 5442 5445 5447 5451 5457 5460
5362 5361 5359 5358 5357 5356 5353 5350 5347 5347 5346 5345 5343 5342 5343 5344 5346 5348 5351 5354 5357 5361 5364 5368 5371 5375 5379 5383 5385 5387 5389 5394 5398 5402 5406 5411 5415 5418 5421 5423 5427 5433 5433
5351 5350 5348 5346 5344 5341 5337 5333 5330 5327 5324 5321 5317 5316 5316 5317 5319 5321 5321 5325 5330 5334 5337 5341 5345 5348 5352 5356 5359 5362 5365 5370 5375 5380 5384 5388 5392 5394 5397 5400 5404 5406 5407
5343 5340 5337 5332 5329 5327 5323 5318 5313 5307 5301 5296 5292 5290 5290 5290 5291 5294 5294 5297 5299 5303 5307 5312 5317 5321 5324 5328 5332 5335 5339 5343 5348 5354 5359 5363 5366 5369 5372 5376 5381 5383 5385
5332 5328 5325 5322 5318 5314 5309 5304 5297 5289 5281 5274 5268 5265 5263 5262 5262 5264 5266 5268 5270 5273 5276 5280 5286 5290 5294 5299 5302 5305 5311 5317 5322 5326 5330 5333 5337 5342 5348 5352 5357 5359 5362
5324 5321 5317 5313 5308 5304 5298 5291 5283 5275 5266 5258 5251 5245 5241 5238 5237 5236 5237 5239 5240 5244 5247 5250 5254 5258 5263 5267 5271 5278 5285 5289 5292 5295 5298 5303 5308 5314 5320 5325 5331 5335 5338
5317 5313 5309 5305 5299 5294 5287 5280 5272 5263 5254 5245 5237 5230 5225 5221 5218 5216 5215 5214 5214 5215 5218 5221 5224 5228 5234 5235 5241 5247 5254 5258 5260 5259 5266 5272 5279 5286 5292 5298 5302 5307 5311